This is the latest recevied weather packets stored in our database for station/object OK1ZDJ-13. If no packets are shown the sender has not sent any weather packets the latest 10 day(s).
| Time | Temp. | Humidity | Pressure | Rain* | Wind** | Luminosity | Snow |
|---|---|---|---|---|---|---|---|
| 1777915683 | 22.78° C | 43% | 1012.6 hPa | - | - | - | - |
| 1777915083 | 23.33° C | 40% | 1012.8 hPa | - | - | - | - |
| 1777914483 | 23.89° C | 40% | 1012.7 hPa | - | - | - | - |
| 1777913882 | 24.44° C | 37% | 1012.7 hPa | - | - | - | - |
| 1777913283 | 24.44° C | 36% | 1012.7 hPa | - | - | - | - |
| 1777912683 | 25° C | 36% | 1012.8 hPa | - | - | - | - |
| 1777912083 | 25° C | 34% | 1012.9 hPa | - | - | - | - |
| 1777911482 | 25° C | 38% | 1012.8 hPa | - | - | - | - |
| 1777910282 | 25° C | 35% | 1013 hPa | - | - | - | - |
| 1777909683 | 25° C | 34% | 1013 hPa | - | - | - | - |
| 1777909087 | 25.56° C | 35% | 1013 hPa | - | - | - | - |
| 1777908481 | 25.56° C | 34% | 1013.1 hPa | - | - | - | - |
| 1777907881 | 25.56° C | 32% | 1013.1 hPa | - | - | - | - |
| 1777907281 | 25.56° C | 29% | 1013.1 hPa | - | - | - | - |
| 1777906681 | 26.11° C | 28% | 1013.2 hPa | - | - | - | - |
| 1777906081 | 25.56° C | 29% | 1013.3 hPa | - | - | - | - |
| 1777905481 | 25° C | 31% | 1013.4 hPa | - | - | - | - |
| 1777904281 | 24.44° C | 30% | 1013.4 hPa | - | - | - | - |
| 1777903081 | 24.44° C | 32% | 1013.5 hPa | - | - | - | - |
| 1777902482 | 24.44° C | 30% | 1013.7 hPa | - | - | - | - |
| 1777900081 | 23.89° C | 32% | 1014.1 hPa | - | - | - | - |
| 1777899481 | 23.89° C | 33% | 1014.1 hPa | - | - | - | - |
| 1777897081 | 23.89° C | 34% | 1014.5 hPa | - | - | - | - |
| 1777895881 | 23.33° C | 34% | 1014.7 hPa | - | - | - | - |
| 1777895281 | 23.33° C | 34% | 1014.8 hPa | - | - | - | - |
* Rain since midnight (hover to see other rain measurements)
** Current wind speed in m/s (hover to see current wind gust speed)